Home > Weather > Santa Clarita > Past weeks

Flag for U.S.A. Weather for the Past 2 Weeks in Santa Clarita, California, U.S.A.

Now
81 °F

Sunny.


Feels Like: 79 °F
Forecast: 54 / 75 °F
Wind: 23 mph from Northeast

Location: Van Nuys Airport

Current Time: Feb 7, 2016 at 4:45:01 PM

Latest Report: Feb 7, 2016 at 3:51 PM


Visibility: 10 mi

Pressure: 30.07 "Hg

Humidity: 9%

Dew point: 18 °F

Location of Santa ClaritaLocation

Historic Weather in Santa Clarita — Graph

°F

Santa Clarita Temperature Yesterday

Maximum temperature yesterday: 76 °F (at 2:51 PM)
Minimum temperature yesterday: 58 °F (at 2:51 AM)
Average temperature yesterday: 66 °F

High & Low Weather Summary for the Past Weeks

 TemperatureHumidityPressure
High83 °F (Feb 7, 1:51 PM)90% (Jan 30, 6:51 AM)30.35 "Hg (Jan 30, 6:51 AM)
Low39 °F (Feb 1, 6:51 AM)8% (Feb 7, 1:51 PM)29.56 "Hg (Jan 31, 1:51 PM)
Average58 °F38%30.11 "Hg
* Reported Jan 23 2:51 PM — Feb 7 2:51 PM, Santa Clarita, Weather by CustomWeather, © 2016

Note: Actual official high and low records may vary slightly from our data, if they occured in-between our weather recording intervals... More about our weather records

Advertising

Santa Clarita Weather History for the Previous 24 Hours

 ConditionsComfort  
Time TempWeatherWind HumidityBarometerVisibility
2:51 PM
Sun, Feb 7
83 °FSunny.17 mph8%30.06 "Hg10 mi
1:51 PM83 °FSunny.20 mph8%30.06 "Hg10 mi
12:51 PM82 °FSunny.22 mph9%30.08 "Hg10 mi
11:51 AM82 °FSunny.5 mph12%30.11 "Hg10 mi
10:51 AM81 °FSunny.16 mph11%30.12 "Hg10 mi
9:51 AM78 °FSunny.15 mph13%30.13 "Hg10 mi
8:51 AM71 °FSunny.17 mph16%30.14 "Hg10 mi
7:51 AM67 °FSunny.21 mph16%30.12 "Hg10 mi
6:51 AM64 °FSunny.18 mph17%30.11 "Hg10 mi
5:51 AM64 °FClear.18 mph17%30.11 "Hg10 mi
4:51 AM63 °FClear.17 mph18%30.11 "Hg10 mi
3:51 AM63 °FClear.16 mph19%30.12 "Hg10 mi
2:51 AM64 °FClear.16 mph18%30.13 "Hg10 mi
1:51 AM64 °FClear.21 mph17%30.14 "Hg10 mi
12:51 AM64 °FClear.18 mph17%30.14 "Hg10 mi
11:51 PM
Sat, Feb 6
64 °FClear.22 mph18%30.15 "Hg10 mi
10:51 PM65 °FClear.24 mph18%30.15 "Hg10 mi
9:51 PM65 °FClear.20 mph18%30.16 "Hg10 mi
8:51 PM66 °FClear.17 mph16%30.16 "Hg10 mi
7:51 PM66 °FClear.15 mph16%30.16 "Hg10 mi
6:51 PM67 °FClear.22 mph16%30.14 "Hg10 mi
5:51 PM69 °FClear.16 mph15%30.14 "Hg10 mi
4:51 PM72 °FSunny.17 mph13%30.13 "Hg10 mi
Weather by CustomWeather, © 2016

See weather overviewHow to use our weather pages